| time (UTC) | temp F | wind direction | speed MPH | gust MPH | rain 1hr in | rain 24hr in | rain mn in | humidity % | barometer mb |
| 20260905222018 | 77 | 23 | 3.0 | 5.0 | 0.00 | 0.00 | 0.00 | 51 | 1025.3 |
| 20260905221018 | 78 | 45 | 3.0 | 6.0 | 0.00 | 0.00 | 0.00 | 52 | 1025.4 |
| 20260905220038 | 78 | 338 | 2.0 | 7.0 | 0.00 | 0.00 | 0.00 | 50 | 1025.3 |
| 20260905215018 | 78 | 45 | 3.0 | 4.0 | 0.00 | 0.00 | 0.00 | 50 | 1025.4 |
| 20260905214018 | 79 | 45 | 2.0 | 3.0 | 0.00 | 0.00 | 0.00 | 49 | 1025.5 |
| 20260905213018 | 79 | 0 | 2.0 | 5.0 | 0.00 | 0.00 | 0.00 | 49 | 1025.6 |
| 20260905212018 | 79 | 338 | 4.0 | 7.0 | 0.00 | 0.00 | 0.00 | 50 | 1025.4 |
| 20260905211018 | 79 | 45 | 2.0 | 4.0 | 0.00 | 0.00 | 0.00 | 50 | 1025.4 |
| 20260905210018 | 80 | 68 | 1.0 | 3.0 | 0.00 | 0.00 | 0.00 | 50 | 1025.5 |
| 20260905205018 | 80 | 45 | 2.0 | 5.0 | 0.00 | 0.00 | 0.00 | 50 | 1025.4 |
| 20260905204018 | 80 | 338 | 3.0 | 7.0 | 0.00 | 0.00 | 0.00 | 49 | 1025.5 |
| 20260905203017 | 81 | 338 | 5.0 | 9.0 | 0.00 | 0.00 | 0.00 | 49 | 1025.4 |
| 20260905202038 | 81 | 338 | 4.0 | 8.0 | 0.00 | 0.00 | 0.00 | 49 | 1025.1 |
| 20260905201018 | 81 | 338 | 6.0 | 9.0 | 0.00 | 0.00 | 0.00 | 50 | 1025.0 |
| 20260905200017 | 81 | 338 | 5.0 | 8.0 | 0.00 | 0.00 | 0.00 | 49 | 1024.9 |
| 20260905195018 | 81 | 338 | 4.0 | 7.0 | 0.00 | 0.00 | 0.00 | 49 | 1024.7 |
| 20260905194018 | 82 | 338 | 5.0 | 7.0 | 0.00 | 0.00 | 0.00 | 49 | 1024.7 |
| 20260905193018 | 82 | 338 | 5.0 | 7.0 | 0.00 | 0.00 | 0.00 | 49 | 1024.6 |
| 20260905192017 | 82 | 338 | 5.0 | 8.0 | 0.00 | 0.00 | 0.00 | 48 | 1024.2 |
| 20260905191038 | 83 | 338 | 4.0 | 7.0 | 0.00 | 0.00 | 0.00 | 47 | 1024.3 |
| 20260905190017 | 83 | 338 | 1.0 | 3.0 | 0.00 | 0.00 | 0.00 | 47 | 1024.5 |
| 20260905185017 | 84 | 315 | 3.0 | 6.0 | 0.00 | 0.00 | 0.00 | 46 | 1024.3 |
| 20260905184017 | 84 | 270 | 4.0 | 5.0 | 0.00 | 0.00 | 0.00 | 45 | 1024.4 |
| 20260905183017 | 85 | 270 | 4.0 | 6.0 | 0.00 | 0.00 | 0.00 | 45 | 1024.3 |
| 20260905182017 | 85 | 270 | 3.0 | 6.0 | 0.00 | 0.00 | 0.00 | 44 | 1024.1 |
| 20260905181037 | 86 | 248 | 4.0 | 6.0 | 0.00 | 0.00 | 0.00 | 44 | 1024.0 |
| 20260905180037 | 86 | 225 | 4.0 | 7.0 | 0.00 | 0.00 | 0.00 | 42 | 1023.9 |
| 20260905175037 | 87 | 0 | 4.0 | 8.0 | 0.00 | 0.00 | 0.00 | 42 | 1024.0 |
| 20260905174017 | 87 | 0 | 4.0 | 7.0 | 0.00 | 0.00 | 0.00 | 41 | 1024.0 |
| 20260905173037 | 88 | 0 | 3.0 | 7.0 | 0.00 | 0.00 | 0.00 | 40 | 1024.0 |
| 20260905172017 | 88 | 0 | 5.0 | 8.0 | 0.00 | 0.00 | 0.00 | 39 | 1024.0 |
| 20260905171037 | 89 | 0 | 4.0 | 9.0 | 0.00 | 0.00 | 0.00 | 39 | 1024.0 |
| 20260905170017 | 89 | 0 | 5.0 | 13.0 | 0.00 | 0.00 | 0.00 | 38 | 1024.0 |
| 20260905165017 | 89 | 0 | 6.0 | 14.0 | 0.00 | 0.00 | 0.00 | 38 | 1023.7 |
| 20260905164017 | 90 | 0 | 6.0 | 12.0 | 0.00 | 0.00 | 0.00 | 38 | 1023.7 |
| 20260905163018 | 90 | 0 | 6.0 | 12.0 | 0.00 | 0.00 | 0.00 | 37 | 1023.6 |
| 20260905162017 | 90 | 0 | 8.0 | 15.0 | 0.00 | 0.00 | 0.00 | 37 | 1023.6 |
| 20260905161037 | 91 | 0 | 8.0 | 15.0 | 0.00 | 0.00 | 0.00 | 37 | 1023.5 |
| 20260905160017 | 91 | 0 | 9.0 | 16.0 | 0.00 | 0.00 | 0.00 | 37 | 1023.4 |
| 20260905155017 | 91 | 0 | 12.0 | 21.0 | 0.00 | 0.00 | 0.00 | 37 | 1023.5 |
| 20260905154017 | 92 | 0 | 8.0 | 21.0 | 0.00 | 0.00 | 0.00 | 36 | 1023.4 |
| 20260905153017 | 92 | 0 | 12.0 | 23.0 | 0.00 | 0.00 | 0.00 | 36 | 1023.3 |
| 20260905152017 | 93 | 0 | 9.0 | 16.0 | 0.00 | 0.00 | 0.00 | 36 | 1023.3 |
| 20260905151017 | 93 | 0 | 9.0 | 20.0 | 0.00 | 0.00 | 0.00 | 35 | 1023.3 |
| 20260905150017 | 94 | 0 | 10.0 | 18.0 | 0.00 | 0.00 | 0.00 | 33 | 1023.5 |
| 20260905145037 | 94 | 0 | 10.0 | 19.0 | 0.00 | 0.00 | 0.00 | 31 | 1023.3 |
| 20260905144017 | 94 | 0 | 12.0 | 20.0 | 0.00 | 0.00 | 0.00 | 31 | 1023.3 |
| 20260905143016 | 95 | 0 | 10.0 | 21.0 | 0.00 | 0.00 | 0.00 | 30 | 1023.3 |
| 20260905142017 | 94 | 0 | 11.0 | 22.0 | 0.00 | 0.00 | 0.00 | 30 | 1023.4 |
| 20260905141017 | 95 | 0 | 10.0 | 21.0 | 0.00 | 0.00 | 0.00 | 31 | 1023.6 |
| 20260905140016 | 95 | 0 | 10.0 | 21.0 | 0.00 | 0.00 | 0.00 | 30 | 1023.5 |
| 20260905135017 | 95 | 0 | 9.0 | 18.0 | 0.00 | 0.00 | 0.00 | 30 | 1023.6 |
| 20260905134017 | 95 | 0 | 11.0 | 22.0 | 0.00 | 0.00 | 0.00 | 30 | 1023.7 |
| 20260905133016 | 95 | 0 | 9.0 | 18.0 | 0.00 | 0.00 | 0.00 | 31 | 1023.7 |
| 20260905132017 | 94 | 0 | 9.0 | 18.0 | 0.00 | 0.00 | 0.00 | 31 | 1023.8 |
| 20260905131016 | 94 | 0 | 10.0 | 19.0 | 0.00 | 0.00 | 0.00 | 32 | 1023.9 |
| 20260905130016 | 94 | 203 | 11.0 | 19.0 | 0.00 | 0.00 | 0.00 | 33 | 1024.0 |
| 20260905125016 | 94 | 180 | 9.0 | 20.0 | 0.00 | 0.00 | 0.00 | 33 | 1024.2 |
| 20260905124016 | 94 | 0 | 10.0 | 22.0 | 0.00 | 0.00 | 0.00 | 33 | 1024.2 |
| 20260905123016 | 94 | 0 | 9.0 | 16.0 | 0.00 | 0.00 | 0.00 | 32 | 1024.2 |
| 20260905122016 | 94 | 203 | 8.0 | 19.0 | 0.00 | 0.00 | 0.00 | 32 | 1024.2 |
| 20260905121016 | 93 | 203 | 9.0 | 17.0 | 0.00 | 0.00 | 0.00 | 32 | 1024.2 |
| 20260905120016 | 93 | 225 | 9.0 | 17.0 | 0.00 | 0.00 | 0.00 | 32 | 1024.4 |
| 20260905115016 | 93 | 203 | 7.0 | 16.0 | 0.00 | 0.00 | 0.00 | 33 | 1024.6 |
| 20260905114016 | 92 | 0 | 7.0 | 14.0 | 0.00 | 0.00 | 0.00 | 35 | 1024.5 |
| 20260905113036 | 91 | 0 | 6.0 | 14.0 | 0.00 | 0.00 | 0.00 | 36 | 1024.7 |
| 20260905112036 | 91 | 0 | 6.0 | 12.0 | 0.00 | 0.00 | 0.00 | 38 | 1024.7 |
| 20260905111017 | 90 | 158 | 5.0 | 11.0 | 0.00 | 0.00 | 0.00 | 38 | 1024.8 |
| 20260905110016 | 89 | 203 | 5.0 | 11.0 | 0.00 | 0.00 | 0.00 | 40 | 1024.8 |
| 20260905105036 | 89 | 180 | 5.0 | 8.0 | 0.00 | 0.00 | 0.00 | 40 | 1025.0 |
| 20260905104016 | 89 | 158 | 4.0 | 8.0 | 0.00 | 0.00 | 0.00 | 41 | 1025.1 |
| 20260905103018 | 89 | 180 | 2.0 | 5.0 | 0.00 | 0.00 | 0.00 | 41 | 1025.2 |
| 20260905102018 | 88 | 180 | 3.0 | 6.0 | 0.00 | 0.00 | 0.00 | 41 | 1025.4 |
| 20260905101018 | 88 | 180 | 2.0 | 6.0 | 0.00 | 0.00 | 0.00 | 42 | 1025.5 |
| 20260905100018 | 88 | 135 | 2.0 | 6.0 | 0.00 | 0.00 | 0.00 | 43 | 1025.6 |
| 20260905095018 | 87 | 135 | 2.0 | 4.0 | 0.00 | 0.00 | 0.00 | 44 | 1025.7 |
| 20260905094038 | 87 | 158 | 2.0 | 5.0 | 0.00 | 0.00 | 0.00 | 44 | 1025.6 |
| 20260905093018 | 87 | 113 | 2.0 | 6.0 | 0.00 | 0.00 | 0.00 | 44 | 1025.6 |
| 20260905092018 | 87 | 225 | 1.0 | 4.0 | 0.00 | 0.00 | 0.00 | 43 | 1025.7 |
| 20260905091018 | 87 | 0 | 1.0 | 2.0 | 0.00 | 0.00 | 0.00 | 43 | 1025.7 |
| 20260905090018 | 86 | 113 | 2.0 | 5.0 | 0.00 | 0.00 | 0.00 | 43 | 1025.7 |
| 20260905085018 | 85 | 0 | 1.0 | 3.0 | 0.00 | 0.00 | 0.00 | 44 | 1025.6 |
| 20260905084018 | 84 | 90 | 1.0 | 3.0 | 0.00 | 0.00 | 0.00 | 45 | 1025.5 |
| 20260905083038 | 83 | 90 | 2.0 | 3.0 | 0.00 | 0.00 | 0.00 | 46 | 1025.3 |
| 20260905082018 | 82 | 90 | 2.0 | 6.0 | 0.00 | 0.00 | 0.00 | 46 | 1025.2 |
| 20260905081017 | 80 | 90 | 1.0 | 3.0 | 0.00 | 0.00 | 0.00 | 50 | 1025.0 |
| 20260905080017 | 78 | 45 | 4.0 | 6.0 | 0.00 | 0.00 | 0.00 | 51 | 1024.8 |
| 20260905075018 | 77 | 45 | 5.0 | 8.0 | 0.00 | 0.00 | 0.00 | 53 | 1024.8 |
| 20260905074037 | 76 | 45 | 6.0 | 9.0 | 0.00 | 0.00 | 0.00 | 54 | 1024.7 |
| 20260905073038 | 75 | 45 | 7.0 | 10.0 | 0.00 | 0.00 | 0.00 | 55 | 1024.6 |
| 20260905072018 | 75 | 45 | 6.0 | 9.0 | 0.00 | 0.00 | 0.00 | 55 | 1024.7 |
| 20260905071018 | 74 | 45 | 7.0 | 12.0 | 0.00 | 0.00 | 0.00 | 56 | 1024.6 |
| 20260905070037 | 74 | 68 | 6.0 | 10.0 | 0.00 | 0.00 | 0.00 | 56 | 1024.6 |
| 20260905065018 | 74 | 45 | 5.0 | 8.0 | 0.00 | 0.00 | 0.00 | 56 | 1024.6 |
| 20260905064018 | 73 | 45 | 5.0 | 8.0 | 0.00 | 0.00 | 0.00 | 56 | 1024.5 |
| 20260905063017 | 73 | 45 | 6.0 | 8.0 | 0.00 | 0.00 | 0.00 | 57 | 1024.2 |
| 20260905062017 | 72 | 45 | 5.0 | 9.0 | 0.00 | 0.00 | 0.00 | 58 | 1024.3 |
| 20260905061017 | 72 | 23 | 6.0 | 10.0 | 0.00 | 0.00 | 0.00 | 59 | 1024.2 |
| 20260905060037 | 71 | 23 | 6.0 | 9.0 | 0.00 | 0.00 | 0.00 | 60 | 1024.0 |
| 20260905055017 | 71 | 45 | 7.0 | 10.0 | 0.00 | 0.00 | 0.00 | 60 | 1024.0 |
| 20260905054017 | 71 | 45 | 7.0 | 9.0 | 0.00 | 0.00 | 0.00 | 60 | 1024.2 |
| 20260905053017 | 72 | 45 | 8.0 | 12.0 | 0.00 | 0.00 | 0.00 | 60 | 1024.1 |
| 20260905052017 | 73 | 45 | 7.0 | 12.0 | 0.00 | 0.00 | 0.00 | 58 | 1024.1 |
| 20260905051017 | 72 | 45 | 2.0 | 5.0 | 0.00 | 0.00 | 0.00 | 61 | 1024.3 |
| 20260905050017 | 72 | 45 | 6.0 | 8.0 | 0.00 | 0.00 | 0.00 | 60 | 1024.2 |
| 20260905045017 | 73 | 45 | 6.0 | 10.0 | 0.00 | 0.00 | 0.00 | 60 | 1024.2 |
| 20260905044017 | 72 | 45 | 6.0 | 10.0 | 0.00 | 0.00 | 0.00 | 60 | 1024.2 |
| 20260905043017 | 72 | 45 | 6.0 | 9.0 | 0.00 | 0.00 | 0.00 | 60 | 1024.1 |
| 20260905042037 | 72 | 45 | 6.0 | 9.0 | 0.00 | 0.00 | 0.00 | 61 | 1024.1 |
| 20260905041017 | 72 | 45 | 7.0 | 9.0 | 0.00 | 0.00 | 0.00 | 61 | 1024.2 |
| 20260905040037 | 73 | 45 | 5.0 | 8.0 | 0.00 | 0.00 | 0.00 | 61 | 1024.1 |
| 20260905035017 | 73 | 45 | 6.0 | 10.0 | 0.00 | 0.00 | 0.00 | 61 | 1024.1 |
| 20260905034017 | 73 | 45 | 8.0 | 11.0 | 0.00 | 0.00 | 0.00 | 61 | 1024.3 |
| 20260905033017 | 73 | 45 | 6.0 | 9.0 | 0.00 | 0.00 | 0.00 | 62 | 1024.2 |
| 20260905032017 | 73 | 45 | 7.0 | 11.0 | 0.00 | 0.00 | 0.00 | 63 | 1024.3 |
| 20260905031017 | 73 | 45 | 9.0 | 12.0 | 0.00 | 0.00 | 0.00 | 62 | 1024.2 |
| 20260905030037 | 74 | 68 | 4.0 | 10.0 | 0.00 | 0.00 | 0.00 | 61 | 1024.4 |
| 20260905025017 | 74 | 23 | 2.0 | 5.0 | 0.00 | 0.00 | 0.00 | 60 | 1024.3 |
| 20260905024017 | 74 | 45 | 4.0 | 7.0 | 0.00 | 0.00 | 0.00 | 61 | 1024.2 |
| 20260905023016 | 73 | 45 | 6.0 | 8.0 | 0.00 | 0.00 | 0.00 | 62 | 1024.2 |
| 20260905022017 | 73 | 45 | 6.0 | 9.0 | 0.00 | 0.00 | 0.00 | 63 | 1024.1 |
| 20260905021017 | 74 | 45 | 6.0 | 9.0 | 0.00 | 0.00 | 0.00 | 62 | 1024.2 |
| 20260905020017 | 73 | 45 | 7.0 | 9.0 | 0.00 | 0.00 | 0.00 | 65 | 1024.2 |
| 20260905015017 | 74 | 45 | 6.0 | 8.0 | 0.00 | 0.00 | 0.00 | 63 | 1024.2 |
| 20260905014037 | 75 | 45 | 6.0 | 9.0 | 0.00 | 0.00 | 0.00 | 62 | 1024.3 |
| 20260905013017 | 75 | 45 | 7.0 | 11.0 | 0.00 | 0.00 | 0.00 | 63 | 1024.3 |
| 20260905012024 | 75 | 45 | 6.0 | 8.0 | 0.00 | 0.00 | 0.00 | 63 | 1024.5 |
| 20260905011028 | 75 | 45 | 5.0 | 7.0 | 0.00 | 0.00 | 0.00 | 63 | 1024.2 |
| 20260905010028 | 75 | 45 | 5.0 | 7.0 | 0.00 | 0.00 | 0.00 | 63 | 1024.2 |
| 20260905005028 | 76 | 45 | 5.0 | 7.0 | 0.00 | 0.00 | 0.00 | 63 | 1024.4 |
| 20260905004028 | 76 | 23 | 2.0 | 5.0 | 0.00 | 0.00 | 0.00 | 63 | 1024.4 |
| 20260905003029 | 76 | 23 | 4.0 | 9.0 | 0.00 | 0.00 | 0.00 | 63 | 1024.4 |
| 20260905002028 | 76 | 23 | 5.0 | 9.0 | 0.00 | 0.00 | 0.00 | 63 | 1024.4 |
| 20260905001028 | 75 | 45 | 4.0 | 6.0 | 0.00 | 0.00 | 0.00 | 65 | 1024.3 |
| 20260905000028 | 75 | 45 | 5.0 | 8.0 | 0.00 | 0.00 | 0.00 | 66 | 1024.4 |
| 20260904235028 | 76 | 68 | 6.0 | 9.0 | 0.00 | 0.00 | 0.00 | 65 | 1024.4 |
| 20260904234029 | 76 | 45 | 6.0 | 10.0 | 0.00 | 0.00 | 0.00 | 64 | 1024.3 |
| 20260904233029 | 76 | 45 | 3.0 | 8.0 | 0.00 | 0.00 | 0.00 | 65 | 1024.2 |
| 20260904232029 | 77 | 23 | 2.0 | 5.0 | 0.00 | 0.00 | 0.00 | 64 | 1024.4 |
| 20260904231028 | 77 | 23 | 5.0 | 10.0 | 0.00 | 0.00 | 0.00 | 64 | 1024.2 |
| 20260904230028 | 77 | 45 | 6.0 | 9.0 | 0.00 | 0.00 | 0.00 | 64 | 1024.2 |
| 20260904225029 | 77 | 45 | 5.0 | 8.0 | 0.00 | 0.00 | 0.00 | 65 | 1024.1 |
| 20260904224028 | 77 | 45 | 6.0 | 9.0 | 0.00 | 0.00 | 0.00 | 65 | 1024.0 |
| 20260904223028 | 77 | 45 | 5.0 | 7.0 | 0.00 | 0.00 | 0.00 | 64 | 1024.0 |